Theta_e
315 316 316 315 314 314 314 314 313 316 317 318 316 315 320 323 330 335 335 332 328 326 327 330 328 330 334 334 334 330 328 328 328 331 332 333 330 324 318 317 321 323 323
313 313 313 312 313 313 313 312 313 314 316 316 317 314 315 321 327 331 333 334 331 328 326 331 326 325 327 333 334 332 328 328 327 328 330 332 329 327 316 315 317 320 320
313 313 312 313 313 313 313 313 314 313 312 313 315 317 315 313 322 325 329 331 332 331 330 329 328 325 323 327 327 331 330 328 328 329 329 329 329 327 322 312 313 317 320
312 313 313 313 312 312 312 312 313 314 313 312 311 314 316 314 313 322 324 326 331 329 329 328 327 326 327 322 325 331 331 330 329 330 329 329 328 327 321 314 315 314 315
312 312 311 311 311 311 311 311 311 312 313 314 312 312 311 312 313 313 314 319 325 330 327 327 328 327 327 325 325 328 327 331 330 330 330 329 324 327 325 323 318 318 315
311 310 310 310 310 310 311 311 311 312 312 313 314 313 313 311 311 311 314 318 317 319 324 325 328 327 328 328 330 326 328 330 331 331 330 329 322 323 325 325 323 322 318
310 309 309 309 309 309 309 309 309 309 309 310 310 313 314 313 312 311 311 315 317 316 316 317 320 327 328 328 329 323 324 329 330 331 329 328 323 323 325 326 326 324 322
308 308 307 306 305 305 305 305 306 306 306 307 308 308 309 311 313 311 311 310 310 315 315 314 316 318 323 330 329 329 325 323 327 331 329 325 324 326 327 326 327 325 323
302 301 301 301 301 301 302 302 302 302 302 303 304 305 305 306 308 312 311 310 309 308 310 315 315 317 319 324 329 329 328 325 325 330 327 323 325 323 324 325 328 326 323
300 300 300 300 301 300 300 300 300 300 300 300 300 301 302 302 304 306 310 312 310 310 310 308 315 314 316 317 323 327 328 327 328 328 324 323 323 322 321 327 326 326 321
299 299 299 298 298 298 298 298 297 298 298 297 298 298 298 299 300 301 303 305 307 308 308 308 307 314 316 316 320 324 327 325 326 324 324 324 322 324 323 325 327 325 321
299 298 298 298 297 297 296 296 296 296 297 296 297 297 297 298 298 300 304 305 306 308 307 307 307 308 316 318 317 319 322 326 325 323 325 325 323 323 325 325 327 326 324
298 298 298 298 298 296 295 295 295 295 295 295 296 296 297 297 298 299 301 302 303 305 306 307 308 307 311 315 314 312 316 321 324 325 326 326 325 322 324 325 326 326 324
298 299 298 298 297 296 294 294 294 294 294 294 294 295 296 296 297 297 299 302 303 304 304 305 305 308 309 311 312 312 314 318 322 323 324 325 326 325 323 323 325 326 325
298 296 296 295 296 295 294 294 293 293 293 293 293 294 294 294 295 295 296 298 300 302 303 305 306 308 312 311 311 311 313 315 318 321 323 324 324 324 325 324 323 325 326
296 296 297 296 296 295 295 296 296 294 293 292 292 292 293 294 294 294 295 296 296 298 300 303 305 308 312 314 313 312 313 313 315 317 321 322 323 323 325 324 324 325 325
296 297 297 298 297 296 296 296 296 298 297 296 295 294 294 294 294 294 295 296 296 297 298 301 303 306 310 312 313 313 313 311 318 317 319 320 321 321 324 323 324 324 323
296 295 296 296 297 297 296 296 296 296 296 298 297 294 294 294 294 294 295 296 296 297 298 299 303 306 308 312 313 314 314 311 317 317 318 319 319 321 320 324 323 323 323
295 294 295 295 296 297 296 297 296 296 296 297 296 296 294 294 294 294 294 295 296 297 298 298 301 303 306 309 310 312 313 313 315 315 316 316 319 320 321 324 324 323 324
294 294 295 295 296 296 296 295 295 295 295 295 296 295 294 293 293 293 295 295 296 297 297 298 299 302 304 307 310 309 310 311 312 314 314 315 318 320 319 319 324 323 323
294 294 295 296 296 295 295 294 294 294 293 292 292 292 292 292 292 292 293 294 296 297 298 298 299 300 303 305 308 309 309 309 309 309 310 312 313 314 314 318 323 324 323
294 295 296 295 295 295 293 293 292 292 291 290 290 290 290 291 292 292 293 293 295 296 298 299 299 299 299 302 305 307 308 308 307 308 310 310 313 315 313 315 321 323 323
295 296 295 295 296 295 293 292 291 290 289 289 289 289 289 290 291 292 293 293 294 295 296 297 298 300 300 300 302 305 307 307 307 309 311 311 312 311 313 317 318 321 323
296 295 295 295 296 294 292 291 290 289 289 289 289 289 289 289 290 291 292 293 293 294 296 296 297 299 301 301 301 303 306 306 308 309 310 310 311 314 311 311 318 318 317
295 295 295 295 295 293 292 290 289 288 288 288 288 288 289 289 289 290 291 292 293 294 296 296 297 299 300 301 302 302 304 305 306 308 310 309 311 314 313 311 315 316 317
295 296 295 296 295 293 291 289 289 289 288 289 289 289 289 289 289 289 290 291 292 294 296 296 297 298 299 300 301 302 303 304 305 306 306 309 311 313 314 313 313 314 315
Wind_Speed
15 15 16 19 20 18 19 19 15 15 17 17 14 9 9 9 11 14 19 24 28 36 30 23 23 15 15 23 22 20 22 21 18 19 22 18 14 12 11 8 7 9 6
17 18 20 21 19 21 20 20 18 16 15 16 15 12 9 7 9 9 13 25 31 35 34 29 27 19 20 19 22 21 25 25 24 21 23 20 15 11 11 9 8 7 7
18 21 19 20 21 22 21 18 19 18 17 18 15 12 15 11 9 11 9 9 23 36 32 29 40 32 32 23 24 28 27 27 25 22 20 20 15 12 11 11 10 10 9
22 20 19 21 20 16 17 18 15 14 16 18 18 13 14 18 11 10 9 10 13 24 30 38 38 35 31 34 30 31 28 29 27 24 20 19 16 14 12 13 12 10 9
18 19 19 20 22 22 22 21 21 18 17 18 14 16 17 19 19 15 14 13 10 15 24 31 41 34 33 40 37 35 30 31 31 29 26 22 17 15 18 14 13 10 9
17 21 23 25 26 25 22 20 19 17 13 12 14 12 12 15 18 18 16 14 10 10 10 15 32 35 38 42 41 45 23 28 35 37 32 29 18 19 20 17 17 14 11
19 21 23 27 28 27 27 27 27 26 25 22 19 14 12 11 13 18 19 19 18 17 15 14 19 25 39 36 44 47 42 36 39 41 33 30 23 22 25 23 22 17 12
27 29 31 34 34 35 33 32 32 30 28 27 27 27 23 17 16 17 21 22 26 24 23 23 18 21 25 27 42 58 48 44 45 38 34 35 27 21 22 20 20 17 15
25 25 26 28 32 33 32 29 27 27 27 29 29 29 27 28 25 19 20 24 27 25 27 25 25 21 20 23 27 40 47 60 52 46 45 35 31 19 18 26 26 24 16
28 30 31 31 29 29 30 30 29 28 27 27 26 26 27 29 29 28 27 25 30 32 29 28 28 27 24 20 26 40 47 53 50 40 44 42 37 40 29 30 33 26 18
28 27 27 26 28 29 29 32 31 31 31 30 26 25 25 24 24 23 28 29 35 38 42 38 31 30 27 24 23 26 42 54 49 51 52 52 49 37 39 39 37 24 20
27 26 28 32 32 33 34 33 30 28 28 28 26 25 22 19 14 15 16 19 23 27 30 32 34 34 29 22 21 22 21 38 49 57 58 63 61 48 38 37 34 28 21
24 28 31 32 30 28 29 30 29 28 28 28 27 25 24 19 15 13 16 22 24 26 25 29 32 34 36 30 27 22 23 24 34 39 35 45 54 58 38 36 35 31 24
30 31 30 30 29 29 28 27 26 27 27 27 26 25 24 22 23 20 16 20 19 26 29 31 33 30 37 35 31 27 26 26 26 31 33 31 36 37 38 37 36 33 31
27 26 27 28 28 29 28 26 25 25 24 25 26 26 27 29 27 24 24 28 25 27 22 21 28 28 27 32 32 31 28 27 28 26 31 30 30 32 35 41 38 38 37
25 26 27 27 27 27 29 32 29 28 25 22 22 23 27 29 29 27 26 25 26 27 31 24 18 19 19 27 32 32 31 27 27 27 26 28 35 33 37 40 42 46 41
25 26 26 26 27 27 28 29 34 32 28 25 21 18 17 20 21 22 22 22 24 22 30 32 27 21 18 20 25 32 31 30 22 22 26 28 28 27 41 36 42 49 46
24 24 25 27 27 27 27 28 29 31 33 32 26 23 19 15 16 18 20 22 25 24 28 33 30 26 18 19 22 20 19 24 21 22 22 26 25 30 32 42 44 49 52
24 24 25 27 28 28 28 28 28 29 31 33 33 28 23 19 15 16 16 23 24 24 23 28 32 31 21 17 14 18 19 22 22 16 18 24 22 26 33 43 52 48 52
23 23 24 27 28 30 30 31 31 31 32 33 32 30 27 22 21 17 15 16 21 24 23 23 27 31 29 20 17 14 15 18 15 17 20 20 24 19 32 36 48 52 51
25 25 26 26 28 30 32 32 32 33 33 32 31 29 26 25 24 21 18 20 18 17 20 20 23 27 31 28 22 18 17 16 14 15 18 17 15 22 22 27 45 51 53
25 26 27 29 30 32 33 31 31 33 32 31 31 29 25 24 23 21 20 19 20 23 17 16 18 23 27 29 30 26 25 19 16 13 14 17 15 18 23 35 27 56 52
23 27 30 30 31 34 33 32 32 31 30 29 27 26 24 22 21 20 19 18 18 21 24 25 22 18 22 26 28 30 24 20 17 15 14 17 12 17 24 22 23 39 51
26 28 30 31 33 36 34 34 33 30 28 27 25 25 23 22 20 20 19 18 16 18 22 23 29 26 21 21 27 28 32 20 13 18 19 18 20 18 19 22 19 18 46
29 30 32 33 35 36 35 35 33 31 29 28 26 25 24 22 21 19 18 18 18 17 17 22 22 29 27 23 22 28 25 21 22 16 16 15 15 14 18 22 22 16 11
30 31 33 35 37 35 35 35 33 30 29 27 26 24 23 21 20 19 17 17 17 16 15 18 18 23 27 27 26 26 30 30 26 25 16 17 20 24 27 23 23 26 23
Wind_Direction
360 355 347 343 340 342 348 348 352 359 359 1 3 348 334 334 306 293 257 241 245 240 244 258 266 260 253 238 248 241 228 229 230 223 222 220 226 239 253 251 243 243 237
342 330 333 328 329 333 340 341 338 341 343 346 351 347 339 332 334 325 276 249 245 242 238 238 250 251 237 234 251 253 226 242 243 243 223 218 225 241 246 246 239 250 246
318 318 330 327 325 329 336 340 338 342 329 329 329 339 328 331 325 341 332 320 253 243 238 243 248 245 234 242 235 254 237 235 241 243 229 224 218 229 244 238 238 236 236
312 316 317 310 312 319 317 316 319 316 316 323 322 314 314 318 318 308 329 327 298 244 239 243 251 243 232 230 236 247 238 226 230 233 228 223 222 219 235 236 240 251 246
299 295 297 293 294 301 304 304 305 308 303 299 300 308 307 310 311 313 298 302 310 256 256 246 240 237 240 230 247 249 240 237 223 220 221 226 225 231 238 238 235 250 258
296 291 292 293 294 297 294 299 302 301 301 301 288 277 304 298 295 298 296 292 288 294 289 261 251 257 243 235 251 240 243 230 225 225 224 228 225 245 241 239 238 239 249
292 297 299 298 296 295 297 296 294 296 294 291 288 290 270 255 266 275 278 275 275 271 264 273 276 251 240 251 239 238 240 229 224 227 223 230 236 239 245 237 235 236 252
301 300 300 299 299 299 298 294 293 294 293 290 285 283 280 274 255 250 259 275 271 272 270 265 269 267 258 254 238 236 237 235 226 228 228 233 249 243 244 256 245 227 241
313 311 311 310 310 308 308 308 306 300 297 292 287 283 279 273 261 253 243 250 262 271 267 262 262 265 268 267 258 245 239 234 234 226 225 231 231 231 248 251 226 220 233
317 316 314 311 311 313 312 312 309 310 308 305 297 292 286 278 266 258 246 247 253 264 271 264 257 260 259 266 258 252 236 226 222 215 214 227 245 243 263 248 241 231 230
319 318 320 319 318 317 314 310 310 308 307 303 303 301 297 289 279 266 252 254 255 260 264 263 258 256 254 258 260 259 246 227 230 225 230 232 248 245 249 244 232 238 236
320 320 320 317 316 315 310 305 308 306 304 304 308 306 303 299 283 262 251 244 247 252 257 263 261 246 251 246 256 257 262 238 240 232 245 240 241 244 242 235 227 228 228
320 317 315 314 314 315 312 310 306 303 301 302 302 299 298 302 290 275 259 261 263 255 250 251 254 247 241 240 248 256 253 249 239 233 241 232 230 236 231 230 222 225 217
320 316 318 321 323 325 321 315 309 308 306 303 300 294 289 282 275 272 268 248 254 247 251 254 253 255 243 243 245 251 251 246 244 240 243 244 228 218 218 223 220 221 214
327 333 334 331 327 325 324 321 314 307 302 299 294 290 287 282 279 276 262 260 255 252 262 242 247 248 242 238 243 243 246 244 240 237 235 241 240 239 229 224 224 224 215
337 336 335 334 332 326 325 325 325 322 316 304 293 283 280 276 276 272 267 261 263 262 262 257 244 241 242 233 236 241 246 244 242 237 231 230 229 231 232 223 224 220 218
332 332 333 332 334 334 330 326 324 327 329 332 327 313 288 279 274 268 262 257 257 255 255 252 252 247 240 240 243 237 243 246 239 238 229 230 230 231 234 229 226 217 215
331 337 338 336 333 329 329 329 328 324 322 324 330 330 316 289 274 268 260 251 248 249 250 248 242 238 235 233 232 222 220 231 235 232 229 226 228 230 231 217 222 216 218
325 328 333 333 332 329 329 326 327 328 326 323 323 322 329 317 285 263 257 246 249 247 249 244 238 242 237 220 217 219 223 232 238 235 240 238 240 233 233 223 216 219 216
339 335 333 331 331 331 331 327 325 324 321 319 317 316 318 317 308 289 272 258 248 245 248 247 237 232 236 224 214 212 221 224 230 235 236 243 241 255 238 238 213 208 215
343 339 337 336 338 337 333 328 324 321 320 317 311 309 305 301 298 290 275 250 250 253 243 246 239 228 227 229 219 216 224 225 231 241 246 250 254 253 248 251 200 207 207
342 340 341 339 335 335 333 328 325 322 319 315 311 309 305 298 290 289 284 265 249 241 241 241 234 229 226 225 226 226 229 234 240 249 259 255 250 238 235 255 223 203 206
341 343 343 342 341 340 335 332 329 323 319 314 312 311 305 299 290 286 283 275 260 241 238 236 238 229 222 225 223 220 221 232 233 238 244 236 228 236 216 246 228 198 209
351 345 344 343 342 343 340 336 334 329 324 319 315 312 306 300 294 283 274 270 259 243 232 236 230 226 220 217 213 212 220 232 234 234 237 238 235 224 218 241 206 180 186
353 349 349 348 346 345 343 341 338 335 330 326 321 316 311 302 295 286 272 260 257 245 242 229 228 220 217 214 208 206 212 217 228 231 236 239 238 233 202 210 233 214 199
353 352 352 351 350 351 348 344 342 338 334 331 327 321 315 306 296 286 272 257 253 234 239 220 219 220 217 212 207 207 214 219 224 227 242 253 214 224 225 200 205 202 209